{"data":{"norad_id":58619,"epoch":"2026-05-24T22:56:34.399680Z","epoch_age_seconds":78754,"freshness":"FRESH","line1":"1 58619U 23203B   26144.95595370 -.00000589  00000+0 -11876-4 0  9999","line2":"2 58619  43.0030 356.5275 0001011 236.0094 124.0662 15.27580288135221","mean_motion":15.27580288,"eccentricity":0.0001011,"inclination_deg":43.003,"raan_deg":356.5275,"arg_perigee_deg":236.0094,"mean_anomaly_deg":124.0662,"bstar":-1.1876e-5,"rev_number":13522,"period_min":94.266730941215,"perigee_km":482.35456783706,"apogee_km":483.74189949131,"semimajor_km":6861.1852336642,"source":"CELESTRAK","updated_at":"2026-05-25T13:38:18.705140Z"}}